This demonstration page uses our WeatherBlox Daily Observations layout. Learn more.

Left ArrowRight Arrow

Hourly Observations for September 10, 2016

Temp ( °F °C ) Dew Point ( °F °C ) Humidity (%) Winds ( mph kmh ) Pressure ( in mb ) Visibility ( mi km ) Precip ( " mm )
12:15 am 00:15 Clear 81 27 73 23 79 79 NE 6 9 30.00 1016 10 16 N/A
12:35 am 00:35 Clear 79 26 73 23 84 84 NNE 8 13 30.00 1016 10 16 N/A
12:55 am 00:55 Clear 79 26 73 23 84 84 N N/A 30.00 1016 10 16 N/A
1:15 am 01:15 Mostly Cloudy 79 26 73 23 84 84 N N/A 30.00 1016 10 16 N/A
1:35 am 01:35 Cloudy 79 26 73 23 84 84 W 9 15 30.00 1016 10 16 N/A
1:55 am 01:55 Mostly Cloudy 77 25 73 23 89 89 WNW 10 17 30.00 1016 10 16 N/A
2:15 am 02:15 Cloudy 77 25 73 23 89 89 N N/A 30.00 1016 10 16 N/A
2:35 am 02:35 Partly Cloudy 77 25 73 23 89 89 W 8 13 30.00 1016 10 16 N/A
2:55 am 02:55 Clear 75 24 73 23 94 94 W 9 15 30.00 1016 10 16 N/A
3:15 am 03:15 Clear 75 24 73 23 94 94 NNW 3 6 30.00 1016 10 16 N/A
3:35 am 03:35 Partly Cloudy 75 24 73 23 94 94 WSW 3 6 30.00 1016 10 16 N/A
3:55 am 03:55 Partly Cloudy 73 23 73 23 100 100 N N/A 30.00 1016 10 16 N/A
4:15 am 04:15 Clear 73 23 73 23 100 100 W 6 9 30.00 1016 10 16 N/A
4:35 am 04:35 Clear 73 23 73 23 100 100 WNW 10 17 30.00 1016 10 16 N/A
4:55 am 04:55 Clear 73 23 73 23 100 100 NNW 5 7 30.00 1016 10 16 N/A
5:15 am 05:15 Clear 73 23 73 23 100 100 NNW 7 11 30.00 1016 10 16 N/A
5:35 am 05:35 Clear 73 23 72 22 94 94 WNW 6 9 30.00 1016 10 16 N/A
5:55 am 05:55 Clear 73 23 72 22 94 94 WNW 5 7 30.00 1016 10 16 N/A
6:15 am 06:15 Partly Cloudy 73 23 72 22 94 94 N N/A 30.00 1016 10 16 N/A
6:35 am 06:35 Clear 72 22 72 22 100 100 N N/A 30.03 1017 10 16 N/A
6:55 am 06:55 Sunny 72 22 72 22 100 100 N N/A 30.03 1017 10 16 N/A
7:15 am 07:15 Sunny 72 22 72 22 100 100 W 5 7 30.03 1017 10 16 N/A
7:35 am 07:35 Sunny 72 22 72 22 100 100 N N/A 30.03 1017 10 16 N/A
7:55 am 07:55 Sunny 75 24 73 23 94 94 N N/A 30.03 1017 10 16 N/A
8:15 am 08:15 Sunny 77 25 73 23 89 89 SW 8 13 30.03 1017 10 16 N/A
8:35 am 08:35 Partly Cloudy 79 26 75 24 89 89 SSW 9 15 30.03 1017 10 16 N/A
8:55 am 08:55 Partly Cloudy 79 26 75 24 89 89 SW 8 13 30.03 1017 10 16 N/A
9:15 am 09:15 Partly Cloudy 81 27 75 24 84 84 SSW 10 17 30.03 1017 10 16 N/A
9:35 am 09:35 Mostly Cloudy 82 28 75 24 79 79 SW 3 6 30.03 1017 10 16 N/A
9:55 am 09:55 Cloudy 86 30 77 25 75 75 S 3 6 30.03 1017 10 16 N/A
10:15 am 10:15 Cloudy 88 31 73 23 62 62 N N/A 30.00 1016 10 16 N/A
10:35 am 10:35 Mostly Cloudy 88 31 75 24 66 66 N N/A 30.00 1016 10 16 N/A
10:55 am 10:55 Partly Cloudy 90 32 75 24 63 63 SW 5 7 30.00 1016 10 16 N/A
11:15 am 11:15 Mostly Cloudy 91 33 73 23 56 56 S 7 11 30.00 1016 10 16 N/A
11:35 am 11:35 Cloudy 91 33 73 23 56 56 WSW 7 11 30.00 1016 10 16 N/A
11:55 am 11:55 Cloudy 91 33 72 22 52 52 SW 6 9 30.00 1016 10 16 N/A
12:15 pm 12:15 Mostly Cloudy 95 35 73 23 50 50 W 9 15 29.97 1015 10 16 N/A
12:35 pm 12:35 Partly Cloudy 95 35 72 22 47 47 WSW 8 13 29.97 1015 10 16 N/A
12:55 pm 12:55 Partly Cloudy 95 35 72 22 47 47 WSW 3 6 29.97 1015 10 16 N/A
1:15 pm 13:15 Mostly Cloudy 95 35 70 21 44 44 S 8 13 29.97 1015 10 16 N/A
1:35 pm 13:35 Cloudy 95 35 70 21 44 44 S 7 11 29.97 1015 10 16 N/A
1:55 pm 13:55 Mostly Cloudy 95 35 72 22 47 47 S 6 9 29.94 1014 10 16 N/A
2:15 pm 14:15 Partly Cloudy 97 36 70 21 42 42 SSW 6 9 29.94 1014 10 16 N/A
2:35 pm 14:35 Sunny 97 36 70 21 42 42 WSW 7 11 29.94 1014 10 16 N/A
2:55 pm 14:55 Sunny 97 36 70 21 42 42 SSW 10 17 29.94 1014 10 16 N/A
3:15 pm 15:15 Sunny 97 36 70 21 42 42 SSW 12 19 29.91 1013 10 16 N/A
3:35 pm 15:35 Sunny 97 36 68 20 39 39 SW 12 19 29.91 1013 10 16 N/A
3:55 pm 15:55 Sunny 99 37 68 20 37 37 SSW 8 13 29.91 1013 10 16 N/A
4:15 pm 16:15 Sunny 97 36 68 20 39 39 SSW 14 22 29.91 1013 10 16 N/A
4:35 pm 16:35 Sunny 97 36 68 20 39 39 SW 9 15 29.91 1013 10 16 N/A
4:55 pm 16:55 Sunny 95 35 70 21 44 44 SW 6 9 29.91 1013 10 16 N/A
5:15 pm 17:15 Partly Cloudy 93 34 70 21 47 47 WSW 5 7 29.91 1013 10 16 N/A
5:35 pm 17:35 Partly Cloudy 93 34 72 22 49 49 S 13 20 29.88 1012 10 16 N/A
5:55 pm 17:55 Sunny 93 34 70 21 47 47 S 14 22 29.88 1012 10 16 N/A
6:15 pm 18:15 Sunny 91 33 72 22 52 52 S 9 15 29.88 1012 10 16 N/A
6:35 pm 18:35 Sunny 91 33 72 22 52 52 S 14 22 29.88 1012 10 16 N/A
6:55 pm 18:55 Sunny 91 33 73 23 56 56 SSE 14 22 29.88 1012 10 16 N/A
7:15 pm 19:15 Sunny 90 32 77 25 67 67 S 12 19 29.88 1012 10 16 N/A
7:35 pm 19:35 Clear 88 31 77 25 70 70 S 13 20 29.88 1012 10 16 N/A
7:55 pm 19:55 Clear 88 31 77 25 70 70 S 10 17 29.88 1012 10 16 N/A
8:15 pm 20:15 Clear 88 31 77 25 70 70 S 12 19 29.91 1013 10 16 N/A
8:35 pm 20:35 Clear 86 30 77 25 75 75 S 12 19 29.91 1013 10 16 N/A
8:55 pm 20:55 Clear 86 30 77 25 75 75 S 13 20 29.91 1013 10 16 N/A
9:15 pm 21:15 Clear 86 30 77 25 75 75 SSW 17 28 29.94 1014 10 16 N/A
9:35 pm 21:35 Clear 84 29 77 25 79 79 SSW 17 28 29.97 1015 10 16 N/A
9:55 pm 21:55 Clear 84 29 77 25 79 79 SSW 13 20 29.97 1015 10 16 N/A
10:15 pm 22:15 Clear 82 28 77 25 84 84 S 13 20 29.97 1015 10 16 N/A
10:35 pm 22:35 Mostly Cloudy 82 28 77 25 84 84 S 12 19 29.94 1014 10 16 N/A
10:55 pm 22:55 Cloudy 82 28 77 25 84 84 SSW 15 24 29.94 1014 10 16 N/A
11:15 pm 23:15 Partly Cloudy 82 28 77 25 84 84 SSW 13 20 29.94 1014 10 16 N/A
11:35 pm 23:35 Clear 82 28 77 25 84 84 SSW 12 19 29.94 1014 10 16 N/A
11:55 pm 23:55 Partly Cloudy 82 28 77 25 84 84 SSW 14 22 29.94 1014 10 16 N/A

Powered by AerisWeather